Weather History for TAPA - March, 2013

Change the Weather History Date:

Thursday, March 21, 2013

  Actual Average Record
Temperature  
Mean Temperature 79 °F -  
Max Temperature 83 °F 82 °F 85 °F (2014)
Min Temperature 75 °F 73 °F 68 °F (1997)
Cooling Degree Days 14    
Growing Degree Days 29 (Base 50)    
Moisture  
Dew Point 71 °F    
Average Humidity 76    
Maximum Humidity 89    
Minimum Humidity 64    
Precipitation  
Precipitation 0.00 in - - ()
Sea Level Pressure  
Sea Level Pressure 29.93 in    
Wind  
Wind Speed 6 mph ()    
Max Wind Speed 10 mph    
Max Gust Speed -    
Visibility 8.1 miles    
Events Rain    
Averages and records for this station are not official NWS values.
T = Trace of Precipitation, MM = Missing Value Source: Averaged Metar Reports

Daily Weather History Graph

Daily Weather History Graph

Search for Another Location

Airport or City:

Trip Planner

Search our weather history database for the weather conditions in past years. The results will help you decide how hot, cold, wet, or windy it might be!

Date:

Astronomy

Mar. 21, 2013 Rise Set
Actual Time 6:10 AM AST 6:18 PM AST
Civil Twilight 5:48 AM AST 6:39 PM AST
Nautical Twilight 5:23 AM AST 7:05 PM AST
Astronomical Twilight 4:58 AM AST 7:30 PM AST
Moon 1:24 PM AST (3/21) 1:46 AM AST (3/21)
Length of Visible Light 12h 51m
Length of Day
12h 08m
Waxing Gibbous, 68% of the Moon is Illuminated
Mar 21
Waxing Gibbous
Mar 27
Full
Apr 3
Last Quarter
Apr 10
New
Apr 18
First Quarter

Hourly Weather History & Observations

Time (AST) Temp. Heat Index Dew Point Humidity Pressure Visibility Wind Dir Wind Speed Gust Speed Precip Events Conditions
12:00 AM 77.0 °F - 68.0 °F 74% 29.92 in 6.2 mi East 6.9 mph - N/A   Mostly Cloudy
1:00 AM 77.0 °F - 68.0 °F 74% 29.92 in 6.2 mi East 8.1 mph - N/A   Mostly Cloudy
2:00 AM 77.0 °F - 68.0 °F 74% 29.89 in 6.2 mi ESE 6.9 mph - N/A   Mostly Cloudy
3:00 AM 77.0 °F - 68.0 °F 74% 29.89 in 6.2 mi East 6.9 mph - N/A   Mostly Cloudy
4:00 AM 77.0 °F - 68.0 °F 74% 29.89 in 6.2 mi East 6.9 mph - N/A   Mostly Cloudy
5:00 AM 76 °F - 69 °F 73% 29.90 in 17 mi East 5.8 mph - -   Haze
5:00 AM 77.0 °F - 69.8 °F 78% 29.89 in 6.2 mi East 5.8 mph - N/A   Mostly Cloudy
6:00 AM 77.0 °F - 68.0 °F 74% 29.89 in 6.2 mi East 5.8 mph - N/A   Mostly Cloudy
7:00 AM 77.0 °F - 69.8 °F 78% 29.92 in 6.2 mi ESE 4.6 mph - N/A   Scattered Clouds
8:00 AM 78 °F - 70 °F 69% 29.96 in 17 mi East 5.8 mph - -   Haze
8:00 AM 78.8 °F - 69.8 °F 74% 29.95 in 6.2 mi East 5.8 mph - N/A   Mostly Cloudy
9:00 AM 80.6 °F 84.6 °F 71.6 °F 74% 29.98 in 6.2 mi East 8.1 mph - N/A   Mostly Cloudy
10:00 AM 80.6 °F 84.6 °F 71.6 °F 74% 29.98 in 6.2 mi East 10.4 mph - N/A   Mostly Cloudy
11:00 AM 80.6 °F 84.6 °F 71.6 °F 74% 29.98 in 6.2 mi East 10.4 mph - N/A   Mostly Cloudy
12:00 PM 80.6 °F 84.6 °F 71.6 °F 74% 29.98 in 6.2 mi ESE 8.1 mph - N/A   Mostly Cloudy
1:00 PM 82.4 °F 86.3 °F 69.8 °F 66% 29.95 in 6.2 mi SE 5.8 mph - N/A   Mostly Cloudy
2:00 PM 82 °F - 73 °F 68% 29.94 in 17 mi East 8.1 mph - - Rain Light Rain
2:00 PM 82.4 °F 88.2 °F 73.4 °F 74% 29.92 in 6.2 mi East 8.1 mph - N/A   Mostly Cloudy
3:00 PM 82.4 °F 87.2 °F 71.6 °F 70% 29.92 in 6.2 mi ESE 9.2 mph - N/A   Mostly Cloudy
4:00 PM 82.4 °F 87.2 °F 71.6 °F 70% 29.89 in 6.2 mi ESE 8.1 mph - N/A   Scattered Clouds
5:00 PM 81 °F - 71 °F 64% 29.91 in 17 mi ESE 6.9 mph - -   Haze
5:00 PM 80.6 °F 84.6 °F 71.6 °F 74% 29.89 in 6.2 mi ESE 6.9 mph - N/A   Partly Cloudy
6:00 PM 78.8 °F - 71.6 °F 78% 29.92 in 6.2 mi ESE 4.6 mph - N/A   Partly Cloudy
7:00 PM 78.8 °F - 73.4 °F 83% 29.92 in 6.2 mi ESE 3.5 mph - N/A   Scattered Clouds
8:00 PM 78 °F - 72 °F 78% 29.96 in 17 mi SE 3.5 mph - -   Haze
8:00 PM 77.0 °F - 73.4 °F 89% 29.95 in 6.2 mi SE 3.5 mph - N/A   Mostly Cloudy
9:00 PM 77.0 °F - 73.4 °F 89% 29.98 in 6.2 mi SE 3.5 mph - N/A   Mostly Cloudy
10:00 PM 77.0 °F - 73.4 °F 89% 29.98 in 6.2 mi SE 3.5 mph - N/A   Scattered Clouds
11:00 PM 77.0 °F - 73.4 °F 89% 29.98 in 6.2 mi ESE 3.5 mph - N/A   Scattered Clouds